{"data":{"norad_id":49408,"intl_designator":"2021-104A","name":"STARLINK-3151","alt_names":[],"object_type":"PAYLOAD","status":"ACTIVE","operator":null,"country":"US","launch_date":"2021-11-13","launch_site_code":"AFETR","launch_vehicle":null,"mission":null,"orbit_class":"UNKNOWN","rcs_meters":null,"size_class":null,"mass_kg":null,"dimensions":null,"purposes":["comms"],"wikipedia_slug":null,"has_3d_model":false,"image_url":null,"decayed_at":null,"tle_current":{"epoch":"2026-06-23T21:19:59.989728Z","epoch_age_seconds":7697319,"freshness":"OLD","line1":"1 49408U 21104A   26174.88888877  .07631202  12382-4  39718-3 0  9997","line2":"2 49408  53.1974  62.2522 0008665 259.8791 100.1282 16.42098427255369","mean_motion":16.42098427,"eccentricity":0.0008665,"inclination_deg":53.1974,"raan_deg":62.2522,"arg_perigee_deg":259.8791,"mean_anomaly_deg":100.1282,"bstar":0.00039718,"rev_number":25536,"period_min":87.692672760839,"perigee_km":154.56085425531,"apogee_km":165.89183793409,"semimajor_km":6538.3633460947,"source":"CELESTRAK","updated_at":"2026-06-24T09:00:51.136514Z"}}}